PAC9551 RKSI-RJAA

Flight info

Callsign PAC9551
Flight time 1h 38m
Altitude 33000
Route N0500F330 EGOBA2C EGOBA Y697 KARBU DCT LANAT Y51 SAMON Y517 ESKAS Y303 ENTAK Y30 SWAMP/N0411F150 SWAMPN
Aircraft B748/H-SADE1E2E3FGHIJ1J2J3J4J5J7M1M3P2RWXYZ/LB1D1G1

Departure

Time 2026-05-05 09:07
Airport Incheon International Airport (RKSI)

Arrival

Time 2026-05-05 10:45
Airport Narita International Airport (RJAA)
Time Latitude Longitude Altitude Speed Heading
2026-05-05 09:06 37.42733 126.49769 2654 ft 184 kts 131°
2026-05-05 09:07 37.41954 126.51110 2951 ft 192 kts 131°
2026-05-05 09:07 37.41131 126.52465 3465 ft 202 kts 131°
2026-05-05 09:07 37.40213 126.53913 3791 ft 221 kts 132°
2026-05-05 09:07 37.39189 126.55475 4039 ft 242 kts 132°
2026-05-05 09:08 37.38096 126.57121 4536 ft 249 kts 134°
2026-05-05 09:08 37.36731 126.58457 4872 ft 250 kts 152°
2026-05-05 09:08 37.35147 126.59429 5313 ft 256 kts 158°
2026-05-05 09:08 37.33476 126.60233 5890 ft 264 kts 163°
2026-05-05 09:09 37.31689 126.60970 6593 ft 271 kts 164°
2026-05-05 09:09 37.29900 126.61740 7461 ft 276 kts 159°
2026-05-05 09:09 37.28319 126.63171 8244 ft 286 kts 134°
2026-05-05 09:09 37.27338 126.65382 8990 ft 300 kts 110°
2026-05-05 09:10 37.27045 126.68021 9585 ft 312 kts 93°
2026-05-05 09:10 37.27177 126.70765 9871 ft 318 kts 85°
2026-05-05 09:10 37.27484 126.73632 9983 ft 348 kts 83°
2026-05-05 09:10 37.27802 126.76799 10008 ft 382 kts 84°
2026-05-05 09:11 37.28071 126.80243 9993 ft 403 kts 86°
2026-05-05 09:11 37.28267 126.83765 9978 ft 406 kts 87°
2026-05-05 09:11 37.28441 126.87281 9972 ft 408 kts 87°
2026-05-05 09:11 37.28635 126.90833 9988 ft 407 kts 85°
2026-05-05 09:12 37.28954 126.94370 9992 ft 407 kts 83°
2026-05-05 09:12 37.29325 126.97898 9988 ft 407 kts 83°
2026-05-05 09:12 37.29659 127.01430 9980 ft 408 kts 84°
2026-05-05 09:12 37.29979 127.04962 9987 ft 407 kts 84°
2026-05-05 09:13 37.30295 127.08497 9988 ft 407 kts 84°
2026-05-05 09:13 37.30676 127.12018 9982 ft 407 kts 79°
2026-05-05 09:13 37.31372 127.15464 9988 ft 407 kts 73°
2026-05-05 09:13 37.32286 127.18830 9990 ft 408 kts 70°
2026-05-05 09:14 37.33323 127.22147 9974 ft 408 kts 62°
2026-05-05 09:14 37.35005 127.24993 10013 ft 406 kts 46°
2026-05-05 09:14 37.37077 127.27441 10714 ft 409 kts 40°
2026-05-05 09:14 37.39166 127.29546 11678 ft 412 kts 36°
2026-05-05 09:15 37.41508 127.31604 12754 ft 412 kts 33°
2026-05-05 09:15 37.43877 127.33622 13553 ft 419 kts 34°
2026-05-05 09:15 37.46218 127.35847 14361 ft 426 kts 43°
2026-05-05 09:15 37.48050 127.38800 15098 ft 433 kts 60°
2026-05-05 09:16 37.49354 127.42238 15888 ft 437 kts 67°
2026-05-05 09:16 37.50247 127.45920 16591 ft 442 kts 78°
2026-05-05 09:16 37.50616 127.49780 17308 ft 446 kts 91°
2026-05-05 09:16 37.50242 127.53667 17980 ft 450 kts 102°
2026-05-05 09:17 37.49504 127.57538 18615 ft 455 kts 106°
2026-05-05 09:17 37.48587 127.61362 19287 ft 457 kts 109°
2026-05-05 09:17 37.47557 127.65175 19888 ft 462 kts 110°
2026-05-05 09:17 37.46469 127.68996 20485 ft 466 kts 110°
2026-05-05 09:18 37.45374 127.72857 21077 ft 470 kts 110°
2026-05-05 09:18 37.44283 127.76742 21641 ft 473 kts 110°
2026-05-05 09:18 37.43235 127.80488 22161 ft 477 kts 110°
2026-05-05 09:18 37.42083 127.84624 22710 ft 481 kts 110°
2026-05-05 09:19 37.40988 127.88566 23206 ft 484 kts 109°
2026-05-05 09:19 37.39875 127.92575 23757 ft 486 kts 109°
2026-05-05 09:19 37.38773 127.96642 24179 ft 491 kts 109°
2026-05-05 09:19 37.37686 128.00670 24611 ft 495 kts 109°
2026-05-05 09:20 37.36564 128.04796 25004 ft 499 kts 109°
2026-05-05 09:20 37.35432 128.08934 25462 ft 502 kts 109°
2026-05-05 09:20 37.34272 128.13147 25877 ft 505 kts 109°
2026-05-05 09:20 37.33130 128.17280 26235 ft 509 kts 109°
2026-05-05 09:21 37.31963 128.21495 26605 ft 512 kts 109°
2026-05-05 09:21 37.30790 128.25722 27044 ft 513 kts 109°
2026-05-05 09:21 37.29608 128.29973 27286 ft 518 kts 110°
2026-05-05 09:21 37.28413 128.34263 27639 ft 520 kts 110°
2026-05-05 09:22 37.27213 128.38564 27967 ft 523 kts 110°
2026-05-05 09:22 37.26416 128.41415 28124 ft 525 kts 110°
2026-05-05 09:22 37.25201 128.45757 28442 ft 527 kts 110°
2026-05-05 09:22 37.23981 128.50114 28675 ft 530 kts 110°
2026-05-05 09:23 37.22758 128.54473 29018 ft 531 kts 110°
2026-05-05 09:23 37.21119 128.60296 29263 ft 536 kts 110°
2026-05-05 09:23 37.19873 128.64717 29535 ft 538 kts 110°
2026-05-05 09:23 37.18618 128.69160 29752 ft 540 kts 110°
2026-05-05 09:24 37.17359 128.73609 30065 ft 540 kts 110°
2026-05-05 09:24 37.16528 128.76542 30340 ft 539 kts 110°
2026-05-05 09:24 37.15275 128.80960 30677 ft 538 kts 110°
2026-05-05 09:24 37.14020 128.85385 30995 ft 538 kts 110°
2026-05-05 09:25 37.12785 128.89729 31208 ft 539 kts 110°
2026-05-05 09:25 37.11499 128.94240 31516 ft 539 kts 111°
2026-05-05 09:25 37.10239 128.98654 31847 ft 538 kts 111°
2026-05-05 09:25 37.08977 129.03064 32102 ft 537 kts 111°
2026-05-05 09:26 37.07715 129.07470 32356 ft 538 kts 111°
2026-05-05 09:26 37.06450 129.11882 32545 ft 539 kts 111°
2026-05-05 09:26 37.05181 129.16295 32767 ft 539 kts 111°
2026-05-05 09:26 37.03912 129.20706 32993 ft 539 kts 111°
2026-05-05 09:27 37.02641 129.25117 33031 ft 538 kts 111°
2026-05-05 09:27 37.00094 129.33931 33010 ft 539 kts 111°
2026-05-05 09:28 36.97538 129.42753 33015 ft 536 kts 112°
2026-05-05 09:28 36.94990 129.51515 33011 ft 536 kts 112°
2026-05-05 09:29 36.92438 129.60261 33013 ft 535 kts 112°
2026-05-05 09:29 36.89891 129.68964 33013 ft 537 kts 112°
2026-05-05 09:30 36.87319 129.77723 33024 ft 537 kts 112°
2026-05-05 09:30 36.84737 129.86492 33022 ft 538 kts 113°
2026-05-05 09:31 36.82143 129.95272 33015 ft 539 kts 113°
2026-05-05 09:31 36.79539 130.04060 33017 ft 541 kts 113°
2026-05-05 09:32 36.76921 130.12864 33022 ft 542 kts 113°
2026-05-05 09:32 36.74288 130.21692 33020 ft 543 kts 114°
2026-05-05 09:33 36.71648 130.30517 33021 ft 543 kts 114°
2026-05-05 09:33 36.69022 130.39264 33030 ft 543 kts 114°
2026-05-05 09:34 36.66372 130.48068 33037 ft 543 kts 114°
2026-05-05 09:34 36.63711 130.56885 33038 ft 544 kts 114°
2026-05-05 09:35 36.61041 130.65691 33042 ft 544 kts 114°
2026-05-05 09:35 36.57029 130.78886 33042 ft 544 kts 114°
2026-05-05 09:36 36.54334 130.87712 33054 ft 545 kts 114°
2026-05-05 09:36 36.51639 130.96512 33051 ft 545 kts 114°
2026-05-05 09:37 36.48938 131.05307 33054 ft 545 kts 114°
2026-05-05 09:37 36.46269 131.14079 33059 ft 546 kts 115°
2026-05-05 09:38 36.43542 131.22875 33078 ft 547 kts 115°
2026-05-05 09:38 36.40794 131.31693 33094 ft 548 kts 115°
2026-05-05 09:39 36.38131 131.40555 33075 ft 550 kts 108°
2026-05-05 09:39 36.37006 131.50008 33062 ft 559 kts 97°
2026-05-05 09:40 36.36676 131.59674 33074 ft 562 kts 94°
2026-05-05 09:40 36.36432 131.69376 33069 ft 564 kts 95°
2026-05-05 09:41 36.36121 131.79123 33092 ft 565 kts 95°
2026-05-05 09:41 36.35810 131.88799 33120 ft 565 kts 95°
2026-05-05 09:42 36.35523 131.98605 33113 ft 565 kts 95°
2026-05-05 09:42 36.35198 132.08376 33107 ft 567 kts 95°
2026-05-05 09:43 36.34856 132.18151 33110 ft 566 kts 96°
2026-05-05 09:43 36.34505 132.27905 33106 ft 566 kts 95°
2026-05-05 09:44 36.34144 132.37666 33107 ft 566 kts 96°
2026-05-05 09:44 36.33779 132.47425 33111 ft 566 kts 96°
2026-05-05 09:45 36.33399 132.57181 33108 ft 566 kts 96°
2026-05-05 09:45 36.33015 132.66930 33106 ft 565 kts 96°
2026-05-05 09:46 36.32625 132.76612 33105 ft 565 kts 96°
2026-05-05 09:46 36.32226 132.86354 33106 ft 566 kts 96°
2026-05-05 09:47 36.31817 132.96103 33123 ft 567 kts 96°
2026-05-05 09:47 36.31400 133.05881 33120 ft 568 kts 96°
2026-05-05 09:48 36.30974 133.15680 33126 ft 570 kts 96°
2026-05-05 09:48 36.30540 133.25497 33126 ft 571 kts 96°
2026-05-05 09:49 36.30095 133.35334 33137 ft 573 kts 96°
2026-05-05 09:49 36.29675 133.45223 33139 ft 575 kts 96°
2026-05-05 09:50 36.29202 133.55126 33138 ft 576 kts 97°
2026-05-05 09:50 36.28715 133.65042 33138 ft 577 kts 97°
2026-05-05 09:51 36.28225 133.74977 33138 ft 579 kts 97°
2026-05-05 09:51 36.27754 133.84943 33139 ft 580 kts 97°
2026-05-05 09:52 36.27244 133.94915 33140 ft 580 kts 97°
2026-05-05 09:52 36.26724 134.04896 33139 ft 581 kts 97°
2026-05-05 09:53 36.26226 134.14894 33140 ft 581 kts 97°
2026-05-05 09:53 36.25706 134.24826 33140 ft 581 kts 97°
2026-05-05 09:54 36.25155 134.34814 33139 ft 581 kts 97°
2026-05-05 09:54 36.24598 134.44798 33140 ft 580 kts 97°
2026-05-05 09:55 36.25010 134.54799 33147 ft 584 kts 84°
2026-05-05 09:55 36.26547 134.64700 33141 ft 586 kts 79°
2026-05-05 09:56 36.28288 134.74571 33140 ft 586 kts 79°
2026-05-05 09:56 36.29948 134.84458 33143 ft 586 kts 79°
2026-05-05 09:57 36.31588 134.94352 33144 ft 586 kts 79°
2026-05-05 09:57 36.33262 135.04191 33144 ft 587 kts 79°
2026-05-05 09:58 36.34908 135.14125 33144 ft 588 kts 79°
2026-05-05 09:58 36.36537 135.24084 33144 ft 589 kts 79°
2026-05-05 09:59 36.38159 135.34066 33140 ft 591 kts 79°
2026-05-05 09:59 36.39774 135.44069 33139 ft 592 kts 79°
2026-05-05 10:00 36.41384 135.54097 33140 ft 593 kts 80°
2026-05-05 10:00 36.42990 135.64154 33141 ft 594 kts 80°
2026-05-05 10:01 36.44589 135.74228 33140 ft 595 kts 80°
2026-05-05 10:01 36.46180 135.84307 33141 ft 596 kts 80°
2026-05-05 10:02 36.47768 135.94432 33141 ft 595 kts 80°
2026-05-05 10:02 36.49345 136.04537 33141 ft 597 kts 80°
2026-05-05 10:03 36.50910 136.14629 33141 ft 598 kts 80°
2026-05-05 10:03 36.52474 136.24773 33141 ft 597 kts 80°
2026-05-05 10:04 36.54031 136.34924 33141 ft 597 kts 80°
2026-05-05 10:04 36.55577 136.45072 33142 ft 596 kts 80°
2026-05-05 10:05 36.57115 136.55225 33141 ft 596 kts 80°
2026-05-05 10:05 36.58673 136.65347 33142 ft 597 kts 80°
2026-05-05 10:06 36.59929 136.73786 33179 ft 596 kts 81°
2026-05-05 10:06 36.61676 136.85642 33142 ft 594 kts 81°
2026-05-05 10:07 36.63164 136.95701 33171 ft 593 kts 81°
2026-05-05 10:07 36.64608 137.05861 33158 ft 597 kts 81°
2026-05-05 10:08 36.65822 137.14413 33107 ft 601 kts 81°
2026-05-05 10:08 36.67263 137.24634 33101 ft 599 kts 81°
2026-05-05 10:09 36.68928 137.36538 33135 ft 604 kts 81°
2026-05-05 10:09 36.70175 137.45085 33130 ft 601 kts 81°
2026-05-05 10:10 36.71631 137.55357 33148 ft 602 kts 81°
2026-05-05 10:10 36.73066 137.65698 33112 ft 605 kts 81°
2026-05-05 10:11 36.74524 137.76022 33110 ft 603 kts 81°
2026-05-05 10:11 36.75935 137.86347 33166 ft 606 kts 82°
2026-05-05 10:12 36.77330 137.96711 33174 ft 600 kts 82°
2026-05-05 10:12 36.78706 138.06982 33157 ft 608 kts 81°
2026-05-05 10:13 36.80159 138.17383 33169 ft 605 kts 81°
2026-05-05 10:13 36.81587 138.27776 33155 ft 607 kts 82°
2026-05-05 10:14 36.82982 138.38144 33156 ft 605 kts 81°
2026-05-05 10:14 36.84379 138.48496 33147 ft 605 kts 82°
2026-05-05 10:15 36.85739 138.58881 33183 ft 607 kts 82°
2026-05-05 10:15 36.87095 138.69229 33134 ft 605 kts 81°
2026-05-05 10:16 36.88495 138.79542 33135 ft 608 kts 82°
2026-05-05 10:16 36.89828 138.89920 33169 ft 607 kts 82°
2026-05-05 10:17 36.91144 139.00268 33178 ft 605 kts 82°
2026-05-05 10:17 36.92488 139.10695 33187 ft 606 kts 81°
2026-05-05 10:18 36.93876 139.21099 32980 ft 608 kts 82°
2026-05-05 10:18 36.94543 139.26308 32253 ft 606 kts 82°
2026-05-05 10:18 36.95202 139.31489 31607 ft 600 kts 82°
2026-05-05 10:19 36.95851 139.36620 30879 ft 596 kts 81°
2026-05-05 10:19 36.96502 139.41715 30186 ft 590 kts 81°
2026-05-05 10:19 36.97138 139.46688 29586 ft 583 kts 81°
2026-05-05 10:19 36.97770 139.51651 29031 ft 574 kts 80°
2026-05-05 10:20 36.98403 139.56541 28491 ft 566 kts 80°
2026-05-05 10:20 36.99013 139.61378 27942 ft 558 kts 81°
2026-05-05 10:20 36.99608 139.66141 27439 ft 551 kts 81°
2026-05-05 10:20 37.00194 139.70852 26870 ft 545 kts 81°
2026-05-05 10:21 37.00770 139.75512 26310 ft 539 kts 81°
2026-05-05 10:21 37.01343 139.80124 25739 ft 533 kts 81°
2026-05-05 10:21 37.01920 139.84692 25175 ft 527 kts 80°
2026-05-05 10:21 37.02476 139.89186 24624 ft 520 kts 81°
2026-05-05 10:22 37.02852 139.93665 24052 ft 514 kts 90°
2026-05-05 10:22 37.02394 139.98050 23536 ft 506 kts 106°
2026-05-05 10:22 37.01045 140.02080 23404 ft 502 kts 120°
2026-05-05 10:22 36.99132 140.05723 23325 ft 501 kts 127°
2026-05-05 10:23 36.97011 140.09188 23268 ft 500 kts 131°
2026-05-05 10:23 36.94733 140.12415 22849 ft 490 kts 135°
2026-05-05 10:23 36.92413 140.15411 22202 ft 482 kts 137°
2026-05-05 10:23 36.90057 140.18348 21421 ft 476 kts 137°
2026-05-05 10:24 36.87733 140.21275 20613 ft 471 kts 136°
2026-05-05 10:24 36.85457 140.24173 20164 ft 468 kts 136°
2026-05-05 10:24 36.83157 140.27117 19779 ft 475 kts 136°
2026-05-05 10:24 36.80867 140.30055 19403 ft 470 kts 136°
2026-05-05 10:25 36.78605 140.32977 19031 ft 465 kts 135°
2026-05-05 10:25 36.76391 140.35879 18658 ft 465 kts 135°
2026-05-05 10:25 36.74140 140.38801 18289 ft 461 kts 135°
2026-05-05 10:25 36.71911 140.41670 17925 ft 458 kts 135°
2026-05-05 10:26 36.69693 140.44514 17556 ft 456 kts 135°
2026-05-05 10:26 36.67480 140.47343 17188 ft 455 kts 136°
2026-05-05 10:26 36.65279 140.50155 16775 ft 451 kts 135°
2026-05-05 10:26 36.63119 140.52914 16204 ft 449 kts 135°
2026-05-05 10:27 36.60941 140.55693 15852 ft 447 kts 135°
2026-05-05 10:27 36.58625 140.58235 15487 ft 442 kts 148°
2026-05-05 10:27 36.55878 140.59859 15129 ft 436 kts 165°
2026-05-05 10:27 36.52899 140.60419 15011 ft 433 kts 179°
2026-05-05 10:28 36.49893 140.60319 14948 ft 428 kts 189°
2026-05-05 10:28 36.46984 140.59638 14930 ft 424 kts 197°
2026-05-05 10:28 36.44179 140.58577 14690 ft 419 kts 201°
2026-05-05 10:28 36.41377 140.57573 14295 ft 421 kts 191°
2026-05-05 10:29 36.38451 140.57498 13934 ft 423 kts 178°
2026-05-05 10:29 36.35512 140.57968 13557 ft 424 kts 173°
2026-05-05 10:29 36.32611 140.58605 13177 ft 423 kts 172°
2026-05-05 10:29 36.29719 140.59268 12806 ft 422 kts 172°
2026-05-05 10:30 36.26842 140.59915 12425 ft 419 kts 172°
2026-05-05 10:30 36.23975 140.60564 12054 ft 417 kts 172°
2026-05-05 10:30 36.21161 140.61192 11684 ft 416 kts 172°
2026-05-05 10:30 36.18288 140.61828 11305 ft 413 kts 172°
2026-05-05 10:31 36.15513 140.62436 11079 ft 410 kts 172°
2026-05-05 10:31 36.12699 140.63050 11006 ft 409 kts 172°
2026-05-05 10:31 36.09919 140.63650 10918 ft 400 kts 172°
2026-05-05 10:31 36.07231 140.64232 10572 ft 386 kts 172°
2026-05-05 10:32 36.04624 140.64795 10195 ft 374 kts 172°
2026-05-05 10:32 36.02101 140.65335 9818 ft 363 kts 172°
2026-05-05 10:32 35.99633 140.65636 9433 ft 351 kts 185°
2026-05-05 10:32 35.97338 140.64918 9199 ft 332 kts 207°
2026-05-05 10:33 35.95554 140.63279 9061 ft 311 kts 229°
2026-05-05 10:33 35.94519 140.61040 8930 ft 292 kts 251°
2026-05-05 10:33 35.94055 140.58673 8818 ft 277 kts 259°
2026-05-05 10:33 35.93950 140.56375 8675 ft 261 kts 279°
2026-05-05 10:34 35.94585 140.54370 8535 ft 246 kts 297°
2026-05-05 10:34 35.95466 140.52582 8389 ft 242 kts 301°
2026-05-05 10:34 35.96385 140.50835 8251 ft 242 kts 302°
2026-05-05 10:34 35.97310 140.49088 7996 ft 244 kts 302°
2026-05-05 10:35 35.98227 140.47339 7746 ft 241 kts 302°
2026-05-05 10:35 35.99140 140.45604 7494 ft 241 kts 302°
2026-05-05 10:35 36.00044 140.43885 7256 ft 242 kts 302°
2026-05-05 10:35 36.00968 140.42139 7109 ft 243 kts 302°
2026-05-05 10:36 36.01897 140.40401 6763 ft 241 kts 302°
2026-05-05 10:36 36.02814 140.38687 6311 ft 236 kts 302°
2026-05-05 10:36 36.03727 140.36994 6078 ft 238 kts 302°
2026-05-05 10:36 36.04650 140.35288 5816 ft 241 kts 302°
2026-05-05 10:37 36.05511 140.33512 5564 ft 240 kts 296°
2026-05-05 10:37 36.06228 140.31645 5316 ft 239 kts 293°
2026-05-05 10:37 36.06902 140.29780 5002 ft 237 kts 291°
2026-05-05 10:37 36.07257 140.27826 4625 ft 228 kts 265°
2026-05-05 10:38 36.06879 140.26012 4305 ft 214 kts 248°
2026-05-05 10:38 36.06286 140.24350 4073 ft 208 kts 244°
2026-05-05 10:38 36.05669 140.22745 4000 ft 204 kts 237°
2026-05-05 10:38 36.04775 140.21450 3963 ft 201 kts 220°
2026-05-05 10:39 36.03569 140.20558 3956 ft 198 kts 202°
2026-05-05 10:39 36.02268 140.20080 3972 ft 197 kts 195°
2026-05-05 10:39 36.00907 140.19861 3966 ft 196 kts 175°
2026-05-05 10:39 35.99636 140.20403 3972 ft 198 kts 157°
2026-05-05 10:40 35.98457 140.21283 3974 ft 199 kts 151°
2026-05-05 10:40 35.97310 140.22242 3970 ft 199 kts 149°
2026-05-05 10:40 35.96146 140.23182 3969 ft 200 kts 150°
2026-05-05 10:40 35.94967 140.24087 3969 ft 200 kts 151°
2026-05-05 10:41 35.93789 140.24961 3851 ft 190 kts 151°
2026-05-05 10:41 35.92694 140.25764 3566 ft 179 kts 152°
2026-05-05 10:41 35.91639 140.26533 3318 ft 174 kts 152°
2026-05-05 10:41 35.90603 140.27287 3086 ft 173 kts 152°
2026-05-05 10:42 35.88541 140.28783 2629 ft 172 kts 152°
2026-05-05 10:42 35.87509 140.29532 2401 ft 172 kts 152°
2026-05-05 10:42 35.86477 140.30280 2174 ft 172 kts 152°
2026-05-05 10:43 35.85459 140.31018 1945 ft 172 kts 152°
2026-05-05 10:43 35.84427 140.31766 1716 ft 172 kts 151°
2026-05-05 10:43 35.83393 140.32515 1487 ft 173 kts 151°
2026-05-05 10:43 35.82333 140.33283 1262 ft 177 kts 150°
2026-05-05 10:44 35.81307 140.34026 1057 ft 168 kts 150°
2026-05-05 10:44 35.80308 140.34749 813 ft 165 kts 150°
2026-05-05 10:44 35.79327 140.35458 592 ft 162 kts 150°
2026-05-05 10:44 35.78352 140.36164 368 ft 162 kts 150°
2026-05-05 10:45 35.77378 140.36869 174 ft 167 kts 149°
2026-05-05 10:45 35.76372 140.37596 149 ft 152 kts 150°
2026-05-05 10:45 35.75641 140.38124 149 ft 91 kts 149°
2026-05-05 10:45 35.75270 140.38402 149 ft 40 kts 139°
2026-05-05 10:46 35.75148 140.38597 148 ft 20 kts 120°
2026-05-05 10:46 35.75139 140.38724 148 ft 12 kts 10°
2026-05-05 10:46 35.75215 140.38692 148 ft 12 kts 330°
2026-05-05 10:46 35.75318 140.38619 148 ft 18 kts 330°
2026-05-05 10:47 35.75426 140.38540 148 ft 17 kts 327°
2026-05-05 10:47 35.75527 140.38465 148 ft 17 kts 330°
2026-05-05 10:47 35.75623 140.38398 148 ft 16 kts 330°
2026-05-05 10:47 35.75714 140.38333 148 ft 15 kts 330°
2026-05-05 10:48 35.75800 140.38272 148 ft 14 kts 329°
2026-05-05 10:48 35.75914 140.38187 148 ft 21 kts 329°
2026-05-05 10:48 35.76039 140.38097 148 ft 20 kts 329°
2026-05-05 10:48 35.76159 140.38011 148 ft 19 kts 329°
2026-05-05 10:49 35.76273 140.37928 148 ft 18 kts 329°
2026-05-05 10:49 35.76381 140.37850 148 ft 18 kts 329°
2026-05-05 10:49 35.76483 140.37775 148 ft 17 kts 329°
2026-05-05 10:49 35.76598 140.37693 148 ft 20 kts 329°
2026-05-05 10:50 35.76713 140.37610 148 ft 19 kts 329°
2026-05-05 10:50 35.76823 140.37530 148 ft 19 kts 329°
2026-05-05 10:50 35.76939 140.37446 148 ft 19 kts 329°
2026-05-05 10:50 35.77041 140.37391 148 ft 13 kts 14°
2026-05-05 10:51 35.77073 140.37427 148 ft 5 kts 56°
2026-05-05 10:51 35.77101 140.37445 148 ft 5 kts 357°
2026-05-05 10:51 35.77134 140.37431 148 ft 5 kts 333°
2026-05-05 10:51 35.77168 140.37419 148 ft 5 kts
2026-05-05 10:52 35.77195 140.37456 148 ft 9 kts 57°
2026-05-05 10:52 35.77218 140.37507 148 ft 2 kts 60°
2026-05-05 10:52 35.77220 140.37510 148 ft 0 kts 60°